Weather in Oran

Algeria     35°41′53″N   0°38′40″E
temp.,
°C
wind,
m/s
gust,
m/s
humid.,
%
clouds,
%
prec.,
mm/h
press.,
hPa
HPBL,
m
8 may, sat
sat801:00+21sse124890 0.0 101712
04:00+21ese2248100 0.0 101615
07:00+21ese23485 0.0 101529
10:00+25se23405 0.0 1015233
13:00+27n34435 0.0 1012905
16:00+24nne455431 0.0 1011270
19:00+22nne236388 0.1 1010103
22:00+22s1161100 0.1 101012
9 may, sun
sun901:00+19wsw7118680 0.1 1013386
04:00+20ssw4571100 0.0 1012101
07:00+20se686499 0.0 1010125
10:00+25se6942100 0.0 1008213
13:00+21w7107065 0.0 1009333
16:00+20w697396 0.0 1009506
19:00+20wsw696740 0.0 1010401
22:00+19sw6966100 0.1 1012318
10 may, mon
mon1001:00+19ssw61072100 2.1 1012353
04:00+18sw61077100 0.2 1012450
07:00+18wsw6977100 0.3 1014473
10:00+20wsw67585 0.0 1014520
13:00+20w67590 0.0 1013659
16:00+20w696225 0.0 1013717
19:00+19w8126126 0.0 1013728
22:00+19wsw9146312 0.0 1016758
11 may, tue
tue1101:00+18wsw914670 0.0 1017744
04:00+17wsw1014750 0.0 1017887
07:00+17wsw913720 0.0 10191165
10:00+18w1014630 0.0 10211410
13:00+19w1013580 0.0 10211451
16:00+18w911530 0.0 10211144
19:00+18w67530 0.0 1021714
22:00+17sw56590 0.0 1023408
12 may, wed
wed1201:00+16sw34600 0.0 1022232
04:00+16ssw22530 0.0 1021134
07:00+16s22470 0.0 1021107
10:00+19w11350 0.0 1021392
13:00+19nnw44440 0.0 1020582
16:00+20wnw46471 0.0 1019586
19:00+19w575866 0.0 1018397
22:00+19sw46595 0.0 1019182